Weather Roundup
Issued by NWS Springfield, MO

Home | Current Version | Previous Version | Text Only | Print | Product List | Glossary On
Versions: 1 2 3 4 5 6 7 8 9 10 11 12 13 14 15 16 17 18 19 20 21 22 23 24 25 26 27 28 29 30 31 32 33 34 35 36 37 38 39 40 41 42 43 44 45 46 47 48 49 50
000
NZUS99 KSGF 032207
HRRSGF

HOURLY WEATHER
NATIONAL WEATHER SERVICE SPRINGFIELD MO
400 PM CST TUE MAR 03 2015

......SGF CWA......

CITY           SKY/WX    TMP DP  RH WIND       PRES   REMARKS
SPRINGFIELD    CLOUDY    49  45  86 W7        29.83R
JOPLIN         CLOUDY    47  44  90 SW8       29.85R
WEST PLAINS    CLOUDY    50  46  86 CALM      29.83S FOG
ROLLA          CLOUDY    46  40  79 W12G22    29.80R
OSAGE BEACH    CLOUDY    46  37  71 W9        29.83R
BRANSON        CLOUDY    55  50  82 W8        29.82F

......SURROUNDING SGF CWA......

CITY           SKY/WX    TMP DP  RH WIND       PRES   REMARKS
CHANUTE        CLOUDY    49  39  68 W5        29.84S
PARSONS        CLOUDY    50  41  71 W7        29.85S
COFFEYVILLE    CLOUDY    52  40  63 NW13      29.84S
EMPORIA        CLOUDY    44  29  55 N12       29.84R
GROVE OK       CLOUDY    52  52 100 W5        29.86R
ROGERS AR      CLOUDY    50  48  93 SW8       29.83S
SILOAM SPRINGS CLOUDY    52  45  76 W7        29.85S
HARRISON AR    CLOUDY    57  53  86 SW6       29.82S
NEAR YELLVILLE CLOUDY    57  48  72 SW9       29.82R

......KANSAS AND MISSOURI......

CITY           SKY/WX    TMP DP  RH WIND       PRES   REMARKS
KANSAS CTY INT CLOUDY    41  29  62 N12       29.83S
DOWNTOWN KC    CLOUDY    43  29  57 N12G20    29.84R
COLUMBIA       CLOUDY    44  39  82 W10       29.82S
SEDALIA        CLOUDY    44  39  82 W7        29.81F
ST JOSEPH      CLOUDY    41  28  60 N15       29.88R
ST LOUIS       CLOUDY    45  42  89 W6        29.83R FOG
SPIRIT OF STL  CLOUDY    43  42  97 CALM      29.82R FOG
WICHITA        CLOUDY    46  28  49 N10       29.87R
TOPEKA         CLOUDY    44  27  51 N12G22    29.85F
OLATHE         CLOUDY    43  31  62 N13       29.84R

......TENNESSEE......

CITY           SKY/WX    TMP DP  RH WIND       PRES   REMARKS
MEMPHIS        FOG       58  56  93 S13       29.93F VSB 1/2
NASHVILLE      CLOUDY    64  58  80 S14       29.94F

......ARKANSAS.......

CITY           SKY/WX    TMP DP  RH WIND       PRES   REMARKS
FAYETTEVILLE   CLOUDY    50  49  96 SW8       29.84R
FT SMITH       CLOUDY    43  41  93 E6        29.86F FOG
LITTLE ROCK    CLOUDY    57  49  74 SW6       29.89S

......OKLAHOMA.......

CITY           SKY/WX    TMP DP  RH WIND       PRES   REMARKS
TULSA          CLOUDY    59  48  67 NW6       29.81R
PONCA CITY     CLOUDY    50  40  68 NW5       29.84S
MCALESTER      CLOUDY    50  47  89 SW7       29.84S
OKLAHOMA CITY  CLOUDY    57  43  59 NW13      29.82R

......IOWA............

CITY           SKY/WX    TMP DP  RH WIND       PRES   REMARKS
DES MOINES     CLOUDY    33  25  72 N22G32    29.83R WCI  21
QUAD CITIES    CLOUDY    35  29  78 W17G24    29.75R WCI  25

......ILLINOIS........

CITY           SKY/WX    TMP DP  RH WIND       PRES   REMARKS
QUINCY         CLOUDY    38  36  92 W13       29.81R FOG     WCI  30
CHICAGO        CLOUDY    34  29  82 W15G23    29.66R WCI  24



USA.gov is the U.S. government's official web portal to all federal, state and local government web resources and services.